| time (UTC) | temp C | wind direction | speed KPH | gust KPH | rain 1hr cm | rain 24hr cm | rain mn cm | humidity % | barometer mb |
| 20260902044058 | 11 | 261 | 0.0 | 3.2 | 0.00 | 0.00 | 0.00 | 46 | 1020.9 |
| 20260902043558 | 11 | 0 | 0.0 | 3.2 | 0.00 | 0.00 | 0.00 | 44 | 1020.9 |
| 20260902043113 | 11 | 68 | 0.0 | 3.2 | 0.00 | 0.00 | 0.00 | 45 | 1020.8 |
| 20260902042603 | 11 | 261 | 0.0 | 6.4 | 0.00 | 0.00 | 0.00 | 46 | 1020.9 |
| 20260902042058 | 11 | 0 | 0.0 | 6.4 | 0.00 | 0.00 | 0.00 | 46 | 1020.7 |
| 20260902041605 | 11 | 220 | 0.0 | 8.0 | 0.00 | 0.00 | 0.00 | 45 | 1020.6 |
| 20260902041057 | 12 | 0 | 0.0 | 9.7 | 0.00 | 0.00 | 0.00 | 45 | 1020.6 |
| 20260902040559 | 12 | 0 | 0.0 | 9.7 | 0.00 | 0.00 | 0.00 | 44 | 1020.6 |
| 20260902040108 | 12 | 0 | 1.6 | 9.7 | 0.00 | 0.00 | 0.00 | 41 | 1020.5 |
| 20260902035557 | 12 | 310 | 0.0 | 14.5 | 0.00 | 0.00 | 0.00 | 39 | 1020.3 |
| 20260902035059 | 12 | 50 | 3.2 | 16.1 | 0.00 | 0.00 | 0.00 | 37 | 1020.3 |
| 20260902034608 | 13 | 53 | 4.8 | 19.3 | 0.00 | 0.00 | 0.00 | 39 | 1020.2 |
| 20260902034058 | 13 | 17 | 3.2 | 30.6 | 0.00 | 0.00 | 0.00 | 37 | 1020.1 |
| 20260902033558 | 13 | 47 | 14.5 | 30.6 | 0.00 | 0.00 | 0.00 | 34 | 1019.9 |
| 20260902033108 | 14 | 192 | 3.2 | 9.7 | 0.00 | 0.00 | 0.00 | 33 | 1019.7 |
| 20260902032558 | 15 | 0 | 0.0 | 14.5 | 0.00 | 0.00 | 0.00 | 26 | 1019.5 |
| 20260902032058 | 16 | 234 | 4.8 | 17.7 | 0.00 | 0.00 | 0.00 | 18 | 1019.4 |
| 20260902031608 | 16 | 182 | 6.4 | 22.5 | 0.00 | 0.00 | 0.00 | 18 | 1019.5 |
| 20260902031101 | 16 | 155 | 11.3 | 30.6 | 0.00 | 0.00 | 0.00 | 16 | 1019.4 |
| 20260902030558 | 17 | 144 | 16.1 | 30.6 | 0.00 | 0.00 | 0.00 | 16 | 1019.5 |
| 20260902025558 | 17 | 129 | 16.1 | 25.7 | 0.00 | 0.00 | 0.00 | 16 | 1019.4 |
| 20260902025101 | 17 | 134 | 9.7 | 29.0 | 0.00 | 0.00 | 0.00 | 16 | 1019.4 |
| 20260902024611 | 17 | 103 | 17.7 | 29.0 | 0.00 | 0.00 | 0.00 | 16 | 1019.3 |
| 20260902024100 | 17 | 150 | 12.9 | 32.2 | 0.00 | 0.00 | 0.00 | 16 | 1019.3 |
| 20260902023558 | 17 | 150 | 16.1 | 32.2 | 0.00 | 0.00 | 0.00 | 16 | 1019.3 |
| 20260902023106 | 17 | 157 | 14.5 | 29.0 | 0.00 | 0.00 | 0.00 | 16 | 1019.3 |
| 20260902022558 | 17 | 131 | 16.1 | 29.0 | 0.00 | 0.00 | 0.00 | 16 | 1019.0 |
| 20260902022101 | 17 | 149 | 6.4 | 25.7 | 0.00 | 0.00 | 0.00 | 15 | 1019.0 |
| 20260902021604 | 17 | 91 | 11.3 | 25.7 | 0.00 | 0.00 | 0.00 | 16 | 1019.1 |
| 20260902021058 | 17 | 124 | 14.5 | 25.7 | 0.00 | 0.00 | 0.00 | 16 | 1019.1 |
| 20260902020558 | 17 | 136 | 8.0 | 17.7 | 0.00 | 0.00 | 0.00 | 16 | 1019.2 |
| 20260902020104 | 17 | 135 | 8.0 | 25.7 | 0.00 | 0.00 | 0.00 | 15 | 1019.1 |
| 20260902015557 | 18 | 164 | 14.5 | 25.7 | 0.00 | 0.00 | 0.00 | 15 | 1018.9 |
| 20260902015057 | 18 | 148 | 11.3 | 32.2 | 0.00 | 0.00 | 0.00 | 15 | 1018.8 |
| 20260902014604 | 18 | 146 | 9.7 | 32.2 | 0.00 | 0.00 | 0.00 | 14 | 1018.9 |
| 20260902014101 | 18 | 69 | 16.1 | 32.2 | 0.00 | 0.00 | 0.00 | 14 | 1018.9 |
| 20260902013558 | 18 | 139 | 9.7 | 19.3 | 0.00 | 0.00 | 0.00 | 14 | 1018.9 |
| 20260902013102 | 19 | 96 | 6.4 | 9.7 | 0.00 | 0.00 | 0.00 | 15 | 1018.9 |
| 20260902012558 | 19 | 162 | 0.0 | 20.9 | 0.00 | 0.00 | 0.00 | 15 | 1019.0 |
| 20260902012057 | 19 | 58 | 8.0 | 20.9 | 0.00 | 0.00 | 0.00 | 14 | 1018.9 |
| 20260902011605 | 20 | 184 | 9.7 | 19.3 | 0.00 | 0.00 | 0.00 | 13 | 1019.2 |
| 20260902011058 | 20 | 199 | 1.6 | 11.3 | 0.00 | 0.00 | 0.00 | 14 | 1019.0 |
| 20260902010558 | 20 | 0 | 4.8 | 11.3 | 0.00 | 0.00 | 0.00 | 13 | 1019.0 |
| 20260902010105 | 20 | 160 | 3.2 | 20.9 | 0.00 | 0.00 | 0.00 | 13 | 1019.1 |
| 20260902005555 | 20 | 259 | 1.6 | 20.9 | 0.00 | 0.00 | 0.00 | 13 | 1019.2 |
| 20260902005057 | 20 | 141 | 6.4 | 20.9 | 0.00 | 0.00 | 0.00 | 12 | 1019.3 |
| 20260902004603 | 20 | 302 | 6.4 | 19.3 | 0.00 | 0.00 | 0.00 | 13 | 1019.2 |
| 20260902004058 | 20 | 160 | 0.0 | 27.4 | 0.00 | 0.00 | 0.00 | 15 | 1019.4 |
| 20260902003600 | 20 | 149 | 9.7 | 27.4 | 0.00 | 0.00 | 0.00 | 12 | 1019.3 |
| 20260902003104 | 20 | 142 | 9.7 | 19.3 | 0.00 | 0.00 | 0.00 | 13 | 1019.4 |
| 20260902002557 | 21 | 131 | 4.8 | 14.5 | 0.00 | 0.00 | 0.00 | 12 | 1019.3 |
| 20260902002058 | 21 | 158 | 1.6 | 16.1 | 0.00 | 0.00 | 0.00 | 14 | 1019.4 |
| 20260902001607 | 21 | 229 | 6.4 | 27.4 | 0.00 | 0.00 | 0.00 | 13 | 1019.3 |
| 20260902001058 | 21 | 219 | 9.7 | 27.4 | 0.00 | 0.00 | 0.00 | 14 | 1019.3 |
| 20260902000558 | 21 | 136 | 9.7 | 24.1 | 0.00 | 0.00 | 0.00 | 13 | 1019.3 |
| 20260901235559 | 21 | 129 | 4.8 | 25.7 | 0.00 | 0.00 | 0.00 | 13 | 1019.4 |
| 20260901235100 | 21 | 158 | 3.2 | 20.9 | 0.00 | 0.00 | 0.00 | 14 | 1019.7 |
| 20260901234616 | 21 | 231 | 6.4 | 20.9 | 0.00 | 0.00 | 0.00 | 13 | 1019.7 |
| 20260901234055 | 21 | 160 | 6.4 | 20.9 | 0.00 | 0.00 | 0.00 | 13 | 1019.7 |
| 20260901233602 | 21 | 163 | 8.0 | 19.3 | 0.00 | 0.00 | 0.00 | 13 | 1019.7 |
| 20260901233108 | 21 | 226 | 4.8 | 20.9 | 0.00 | 0.00 | 0.00 | 13 | 1019.7 |
| 20260901232558 | 21 | 202 | 6.4 | 27.4 | 0.00 | 0.00 | 0.00 | 13 | 1019.9 |
| 20260901232058 | 21 | 63 | 9.7 | 27.4 | 0.00 | 0.00 | 0.00 | 13 | 1019.7 |
| 20260901231605 | 21 | 212 | 8.0 | 27.4 | 0.00 | 0.00 | 0.00 | 13 | 1019.9 |
| 20260901231058 | 22 | 245 | 11.3 | 27.4 | 0.00 | 0.00 | 0.00 | 12 | 1019.9 |
| 20260901230557 | 22 | 256 | 6.4 | 24.1 | 0.00 | 0.00 | 0.00 | 14 | 1019.8 |
| 20260901230105 | 22 | 262 | 14.5 | 24.1 | 0.00 | 0.00 | 0.00 | 13 | 1019.9 |
| 20260901225557 | 22 | 208 | 8.0 | 20.9 | 0.00 | 0.00 | 0.00 | 12 | 1019.9 |
| 20260901225057 | 22 | 223 | 6.4 | 17.7 | 0.00 | 0.00 | 0.00 | 11 | 1019.9 |
| 20260901224605 | 22 | 239 | 6.4 | 17.7 | 0.00 | 0.00 | 0.00 | 12 | 1019.8 |
| 20260901224057 | 22 | 220 | 1.6 | 19.3 | 0.00 | 0.00 | 0.00 | 14 | 1019.7 |
| 20260901223601 | 22 | 162 | 4.8 | 19.3 | 0.00 | 0.00 | 0.00 | 12 | 1019.8 |
| 20260901223105 | 22 | 252 | 8.0 | 19.3 | 0.00 | 0.00 | 0.00 | 11 | 1019.8 |
| 20260901222557 | 22 | 162 | 3.2 | 17.7 | 0.00 | 0.00 | 0.00 | 14 | 1019.7 |
| 20260901222057 | 22 | 217 | 6.4 | 22.5 | 0.00 | 0.00 | 0.00 | 13 | 1019.8 |
| 20260901221608 | 22 | 243 | 4.8 | 22.5 | 0.00 | 0.00 | 0.00 | 14 | 1019.9 |
| 20260901221057 | 23 | 248 | 6.4 | 19.3 | 0.00 | 0.00 | 0.00 | 14 | 1019.9 |
| 20260901220557 | 23 | 207 | 3.2 | 19.3 | 0.00 | 0.00 | 0.00 | 16 | 1019.8 |
| 20260901220118 | 22 | 82 | 4.8 | 14.5 | 0.00 | 0.00 | 0.00 | 16 | 1020.0 |
| 20260901215558 | 22 | 160 | 1.6 | 16.1 | 0.00 | 0.00 | 0.00 | 16 | 1019.9 |
| 20260901215058 | 22 | 0 | 1.6 | 29.0 | 0.00 | 0.00 | 0.00 | 16 | 1019.9 |
| 20260901214606 | 21 | 72 | 6.4 | 29.0 | 0.00 | 0.00 | 0.00 | 16 | 1019.7 |
| 20260901214059 | 21 | 58 | 8.0 | 27.4 | 0.00 | 0.00 | 0.00 | 18 | 1019.8 |
| 20260901213559 | 21 | 70 | 8.0 | 19.3 | 0.00 | 0.00 | 0.00 | 18 | 1019.9 |
| 20260901213112 | 21 | 87 | 9.7 | 22.5 | 0.00 | 0.00 | 0.00 | 19 | 1020.0 |
| 20260901212557 | 21 | 108 | 9.7 | 22.5 | 0.00 | 0.00 | 0.00 | 19 | 1020.0 |
| 20260901212057 | 21 | 59 | 4.8 | 17.7 | 0.00 | 0.00 | 0.00 | 18 | 1020.1 |
| 20260901211604 | 21 | 63 | 3.2 | 19.3 | 0.00 | 0.00 | 0.00 | 19 | 1020.2 |
| 20260901211058 | 21 | 140 | 8.0 | 20.9 | 0.00 | 0.00 | 0.00 | 19 | 1020.3 |
| 20260901210557 | 21 | 53 | 11.3 | 20.9 | 0.00 | 0.00 | 0.00 | 18 | 1020.4 |
| 20260901210104 | 21 | 97 | 4.8 | 32.2 | 0.00 | 0.00 | 0.00 | 20 | 1020.5 |
| 20260901205558 | 20 | 53 | 9.7 | 32.2 | 0.00 | 0.00 | 0.00 | 20 | 1020.5 |
| 20260901205101 | 21 | 53 | 6.4 | 22.5 | 0.00 | 0.00 | 0.00 | 20 | 1020.4 |
| 20260901204605 | 20 | 140 | 11.3 | 22.5 | 0.00 | 0.00 | 0.00 | 20 | 1020.5 |
| 20260901204059 | 20 | 69 | 12.9 | 27.4 | 0.00 | 0.00 | 0.00 | 21 | 1020.5 |
| 20260901203559 | 20 | 252 | 11.3 | 27.4 | 0.00 | 0.00 | 0.00 | 21 | 1020.6 |
| 20260901203111 | 20 | 122 | 11.3 | 30.6 | 0.00 | 0.00 | 0.00 | 23 | 1020.4 |
| 20260901202557 | 20 | 79 | 11.3 | 30.6 | 0.00 | 0.00 | 0.00 | 23 | 1020.5 |
| 20260901202057 | 20 | 47 | 9.7 | 20.9 | 0.00 | 0.00 | 0.00 | 22 | 1020.6 |
| 20260901201605 | 20 | 45 | 11.3 | 25.7 | 0.00 | 0.00 | 0.00 | 22 | 1020.6 |
| 20260901201058 | 20 | 34 | 11.3 | 29.0 | 0.00 | 0.00 | 0.00 | 24 | 1020.5 |
| 20260901200557 | 19 | 37 | 16.1 | 29.0 | 0.00 | 0.00 | 0.00 | 23 | 1020.5 |
| 20260901200106 | 20 | 109 | 11.3 | 29.0 | 0.00 | 0.00 | 0.00 | 27 | 1020.5 |
| 20260901195600 | 20 | 81 | 14.5 | 29.0 | 0.00 | 0.00 | 0.00 | 29 | 1020.6 |
| 20260901195057 | 20 | 165 | 8.0 | 27.4 | 0.00 | 0.00 | 0.00 | 27 | 1020.5 |
| 20260901194607 | 20 | 60 | 11.3 | 27.4 | 0.00 | 0.00 | 0.00 | 27 | 1020.6 |
| 20260901194057 | 20 | 132 | 12.9 | 22.5 | 0.00 | 0.00 | 0.00 | 27 | 1020.7 |
| 20260901193557 | 20 | 64 | 11.3 | 22.5 | 0.00 | 0.00 | 0.00 | 24 | 1020.7 |
| 20260901193116 | 20 | 59 | 9.7 | 22.5 | 0.00 | 0.00 | 0.00 | 27 | 1020.8 |
| 20260901192557 | 20 | 169 | 12.9 | 22.5 | 0.00 | 0.00 | 0.00 | 26 | 1020.8 |
| 20260901192057 | 19 | 50 | 6.4 | 22.5 | 0.00 | 0.00 | 0.00 | 29 | 1020.8 |
| 20260901191606 | 18 | 87 | 9.7 | 22.5 | 0.00 | 0.00 | 0.00 | 31 | 1020.9 |
| 20260901191057 | 18 | 64 | 9.7 | 22.5 | 0.00 | 0.00 | 0.00 | 29 | 1021.1 |
| 20260901190557 | 18 | 144 | 11.3 | 27.4 | 0.00 | 0.00 | 0.00 | 29 | 1021.0 |
| 20260901185558 | 18 | 99 | 11.3 | 19.3 | 0.00 | 0.00 | 0.00 | 32 | 1021.3 |
| 20260901185057 | 18 | 119 | 9.7 | 19.3 | 0.00 | 0.00 | 0.00 | 31 | 1021.4 |
| 20260901184626 | 18 | 111 | 8.0 | 17.7 | 0.00 | 0.00 | 0.00 | 30 | 1021.4 |
| 20260901184058 | 18 | 105 | 11.3 | 20.9 | 0.00 | 0.00 | 0.00 | 30 | 1021.3 |
| 20260901183558 | 17 | 112 | 9.7 | 20.9 | 0.00 | 0.00 | 0.00 | 30 | 1021.4 |
| 20260901183106 | 18 | 77 | 11.3 | 17.7 | 0.00 | 0.00 | 0.00 | 29 | 1021.5 |
| 20260901182557 | 17 | 162 | 8.0 | 19.3 | 0.00 | 0.00 | 0.00 | 31 | 1021.5 |
| 20260901182057 | 17 | 136 | 6.4 | 19.3 | 0.00 | 0.00 | 0.00 | 32 | 1021.6 |
| 20260901181607 | 17 | 165 | 9.7 | 20.9 | 0.00 | 0.00 | 0.00 | 31 | 1021.7 |
| 20260901181058 | 17 | 114 | 11.3 | 20.9 | 0.00 | 0.00 | 0.00 | 32 | 1021.8 |
| 20260901180558 | 17 | 358 | 8.0 | 17.7 | 0.00 | 0.00 | 0.00 | 32 | 1021.7 |
| 20260901180105 | 17 | 138 | 9.7 | 17.7 | 0.00 | 0.00 | 0.00 | 34 | 1021.7 |
| 20260901175557 | 17 | 68 | 8.0 | 16.1 | 0.00 | 0.00 | 0.00 | 33 | 1021.7 |
| 20260901175057 | 18 | 144 | 8.0 | 16.1 | 0.00 | 0.00 | 0.00 | 32 | 1021.7 |
| 20260901174607 | 18 | 104 | 6.4 | 16.1 | 0.00 | 0.00 | 0.00 | 34 | 1021.6 |
| 20260901174057 | 18 | 120 | 1.6 | 9.7 | 0.00 | 0.00 | 0.00 | 31 | 1021.7 |
| 20260901173556 | 18 | 44 | 1.6 | 9.7 | 0.00 | 0.00 | 0.00 | 33 | 1021.7 |
| 20260901173104 | 18 | 55 | 1.6 | 6.4 | 0.00 | 0.00 | 0.00 | 38 | 1021.8 |
| 20260901172557 | 18 | 24 | 0.0 | 6.4 | 0.00 | 0.00 | 0.00 | 36 | 1021.7 |
| 20260901172058 | 18 | 83 | 1.6 | 11.3 | 0.00 | 0.00 | 0.00 | 34 | 1021.9 |
| 20260901171605 | 17 | 39 | 1.6 | 11.3 | 0.00 | 0.00 | 0.00 | 36 | 1021.8 |
| 20260901171057 | 17 | 87 | 3.2 | 11.3 | 0.00 | 0.00 | 0.00 | 34 | 1021.6 |
| 20260901170558 | 17 | 0 | 1.6 | 8.0 | 0.00 | 0.00 | 0.00 | 36 | 1021.7 |
| 20260901170120 | 17 | 51 | 1.6 | 6.4 | 0.00 | 0.00 | 0.00 | 36 | 1021.7 |
| 20260901165557 | 17 | 301 | 3.2 | 6.4 | 0.00 | 0.00 | 0.00 | 36 | 1021.7 |
| 20260901165058 | 17 | 297 | 1.6 | 6.4 | 0.00 | 0.00 | 0.00 | 35 | 1021.7 |
| 20260901164608 | 16 | 0 | 0.0 | 6.4 | 0.00 | 0.00 | 0.00 | 36 | 1021.8 |
| 20260901164057 | 16 | 68 | 3.2 | 8.0 | 0.00 | 0.00 | 0.00 | 38 | 1021.6 |
| 20260901163557 | 16 | 326 | 3.2 | 8.0 | 0.00 | 0.00 | 0.00 | 40 | 1021.7 |
| 20260901163105 | 16 | 46 | 3.2 | 6.4 | 0.00 | 0.00 | 0.00 | 39 | 1021.7 |
| 20260901162556 | 16 | 276 | 1.6 | 8.0 | 0.00 | 0.00 | 0.00 | 41 | 1021.7 |
| 20260901162058 | 16 | 63 | 4.8 | 8.0 | 0.00 | 0.00 | 0.00 | 41 | 1021.7 |
| 20260901161610 | 16 | 63 | 1.6 | 8.0 | 0.00 | 0.00 | 0.00 | 41 | 1021.7 |
| 20260901161058 | 16 | 62 | 1.6 | 8.0 | 0.00 | 0.00 | 0.00 | 41 | 1021.6 |
| 20260901160559 | 15 | 82 | 1.6 | 8.0 | 0.00 | 0.00 | 0.00 | 43 | 1021.7 |
| 20260901160103 | 15 | 54 | 1.6 | 8.0 | 0.00 | 0.00 | 0.00 | 45 | 1021.6 |
| 20260901155557 | 15 | 77 | 4.8 | 6.4 | 0.00 | 0.00 | 0.00 | 41 | 1021.7 |
| 20260901155057 | 15 | 51 | 1.6 | 4.8 | 0.00 | 0.00 | 0.00 | 42 | 1021.5 |
| 20260901154618 | 15 | 46 | 1.6 | 3.2 | 0.00 | 0.00 | 0.00 | 44 | 1021.5 |
| 20260901154057 | 14 | 0 | 0.0 | 4.8 | 0.00 | 0.00 | 0.00 | 43 | 1021.5 |
| 20260901153559 | 13 | 0 | 1.6 | 4.8 | 0.00 | 0.00 | 0.00 | 45 | 1021.5 |
| 20260901153118 | 13 | 136 | 0.0 | 3.2 | 0.00 | 0.00 | 0.00 | 45 | 1021.6 |
| 20260901152556 | 13 | 67 | 0.0 | 3.2 | 0.00 | 0.00 | 0.00 | 48 | 1021.6 |
| 20260901152058 | 13 | 56 | 0.0 | 3.2 | 0.00 | 0.00 | 0.00 | 48 | 1021.5 |
| 20260901151605 | 13 | 60 | 1.6 | 4.8 | 0.00 | 0.00 | 0.00 | 50 | 1021.5 |
| 20260901151058 | 12 | 0 | 1.6 | 4.8 | 0.00 | 0.00 | 0.00 | 50 | 1021.5 |
| 20260901150600 | 12 | 53 | 1.6 | 4.8 | 0.00 | 0.00 | 0.00 | 50 | 1021.3 |
| 20260901150110 | 12 | 53 | 3.2 | 4.8 | 0.00 | 0.00 | 0.00 | 49 | 1021.7 |
| 20260901145557 | 12 | 82 | 0.0 | 3.2 | 0.00 | 0.00 | 0.00 | 51 | 1021.6 |
| 20260901145117 | 11 | 107 | 1.6 | 3.2 | 0.00 | 0.00 | 0.00 | 49 | 1021.5 |
| 20260901144604 | 11 | 0 | 0.0 | 4.8 | 0.00 | 0.00 | 0.00 | 54 | 1021.5 |
| 20260901144057 | 11 | 112 | 0.0 | 4.8 | 0.00 | 0.00 | 0.00 | 51 | 1021.5 |
| 20260901143557 | 11 | 56 | 0.0 | 3.2 | 0.00 | 0.00 | 0.00 | 50 | 1021.5 |
| 20260901143107 | 10 | 0 | 0.0 | 3.2 | 0.00 | 0.00 | 0.00 | 53 | 1021.4 |
| 20260901142557 | 9 | 0 | 0.0 | 3.2 | 0.00 | 0.00 | 0.00 | 55 | 1021.3 |
| 20260901142057 | 8 | 0 | 0.0 | 3.2 | 0.00 | 0.00 | 0.00 | 56 | 1021.2 |
| 20260901141607 | 8 | 0 | 0.0 | 3.2 | 0.00 | 0.00 | 0.00 | 59 | 1021.2 |
| 20260901141059 | 8 | 164 | 0.0 | 6.4 | 0.00 | 0.00 | 0.00 | 58 | 1021.2 |
| 20260901140557 | 8 | 70 | 1.6 | 9.7 | 0.00 | 0.00 | 0.00 | 56 | 1021.1 |
| 20260901140110 | 8 | 96 | 3.2 | 9.7 | 0.00 | 0.00 | 0.00 | 56 | 1021.0 |
| 20260901135557 | 8 | 64 | 8.0 | 9.7 | 0.00 | 0.00 | 0.00 | 57 | 1020.9 |
| 20260901135057 | 6 | 75 | 3.2 | 6.4 | 0.00 | 0.00 | 0.00 | 64 | 1020.9 |
| 20260901134601 | 6 | 0 | 0.0 | 3.2 | 0.00 | 0.00 | 0.00 | 68 | 1020.8 |
| 20260901134057 | 7 | 0 | 0.0 | 1.6 | 0.00 | 0.00 | 0.00 | 65 | 1020.7 |
| 20260901133557 | 7 | 0 | 0.0 | 0.0 | 0.00 | 0.00 | 0.00 | 65 | 1020.7 |
| 20260901133113 | 7 | 0 | 0.0 | 1.6 | 0.00 | 0.00 | 0.00 | 64 | 1020.6 |
| 20260901132559 | 7 | 0 | 0.0 | 3.2 | 0.00 | 0.00 | 0.00 | 63 | 1020.6 |
| 20260901132101 | 8 | 0 | 0.0 | 3.2 | 0.00 | 0.00 | 0.00 | 61 | 1020.6 |
| 20260901131603 | 8 | 143 | 0.0 | 3.2 | 0.00 | 0.00 | 0.00 | 60 | 1020.5 |
| 20260901131101 | 8 | 0 | 0.0 | 3.2 | 0.00 | 0.00 | 0.00 | 60 | 1020.6 |
| 20260901130557 | 8 | 0 | 0.0 | 3.2 | 0.00 | 0.00 | 0.00 | 59 | 1020.5 |
| 20260901130106 | 8 | 0 | 0.0 | 3.2 | 0.00 | 0.00 | 0.00 | 60 | 1020.4 |
| 20260901125557 | 8 | 152 | 0.0 | 3.2 | 0.00 | 0.00 | 0.00 | 61 | 1020.6 |
| 20260901125057 | 8 | 0 | 0.0 | 0.0 | 0.00 | 0.00 | 0.00 | 63 | 1020.5 |
| 20260901124613 | 8 | 167 | 0.0 | 1.6 | 0.00 | 0.00 | 0.00 | 64 | 1020.4 |
| 20260901124056 | 8 | 0 | 0.0 | 1.6 | 0.00 | 0.00 | 0.00 | 66 | 1020.5 |
| 20260901123601 | 8 | 0 | 0.0 | 6.4 | 0.00 | 0.00 | 0.00 | 69 | 1020.3 |
| 20260901123120 | 8 | 0 | 0.0 | 6.4 | 0.00 | 0.00 | 0.00 | 69 | 1020.4 |
| 20260901122557 | 7 | 76 | 0.0 | 3.2 | 0.00 | 0.00 | 0.00 | 71 | 1020.4 |
| 20260901122057 | 7 | 0 | 0.0 | 3.2 | 0.00 | 0.00 | 0.00 | 73 | 1020.3 |
| 20260901121608 | 7 | 0 | 0.0 | 3.2 | 0.00 | 0.00 | 0.00 | 74 | 1020.2 |
| 20260901121100 | 7 | 0 | 0.0 | 1.6 | 0.00 | 0.00 | 0.00 | 74 | 1020.2 |
| 20260901120601 | 7 | 191 | 0.0 | 1.6 | 0.00 | 0.00 | 0.00 | 74 | 1020.3 |
| 20260901120118 | 7 | 0 | 0.0 | 0.0 | 0.00 | 0.00 | 0.00 | 73 | 1020.4 |
| 20260901115559 | 8 | 0 | 0.0 | 1.6 | 0.00 | 0.00 | 0.00 | 72 | 1020.4 |
| 20260901115058 | 8 | 0 | 0.0 | 1.6 | 0.00 | 0.00 | 0.00 | 73 | 1020.4 |
| 20260901114603 | 8 | 0 | 0.0 | 3.2 | 0.00 | 0.00 | 0.00 | 73 | 1020.5 |
| 20260901114059 | 7 | 0 | 0.0 | 3.2 | 0.00 | 0.00 | 0.00 | 74 | 1020.4 |
| 20260901113559 | 8 | 0 | 0.0 | 3.2 | 0.00 | 0.00 | 0.00 | 72 | 1020.5 |
| 20260901113118 | 8 | 0 | 0.0 | 1.6 | 0.00 | 0.00 | 0.00 | 72 | 1020.4 |
| 20260901112600 | 8 | 0 | 0.0 | 3.2 | 0.00 | 0.00 | 0.00 | 72 | 1020.4 |
| 20260901112059 | 8 | 181 | 0.0 | 3.2 | 0.00 | 0.00 | 0.00 | 72 | 1020.4 |
| 20260901111605 | 8 | 0 | 0.0 | 1.6 | 0.00 | 0.00 | 0.00 | 72 | 1020.4 |
| 20260901111059 | 8 | 0 | 0.0 | 3.2 | 0.00 | 0.00 | 0.00 | 74 | 1020.4 |
| 20260901110558 | 8 | 0 | 0.0 | 3.2 | 0.00 | 0.00 | 0.00 | 74 | 1020.5 |
| 20260901110108 | 8 | 0 | 0.0 | 3.2 | 0.00 | 0.00 | 0.00 | 74 | 1020.4 |
| 20260901105559 | 8 | 171 | 0.0 | 1.6 | 0.00 | 0.00 | 0.00 | 74 | 1020.5 |
| 20260901105058 | 8 | 0 | 0.0 | 3.2 | 0.00 | 0.00 | 0.00 | 76 | 1020.4 |
| 20260901104603 | 8 | 0 | 0.0 | 3.2 | 0.00 | 0.00 | 0.00 | 76 | 1020.2 |
| 20260901104059 | 8 | 224 | 0.0 | 1.6 | 0.00 | 0.00 | 0.00 | 75 | 1020.2 |
| 20260901103559 | 8 | 0 | 0.0 | 1.6 | 0.00 | 0.00 | 0.00 | 74 | 1020.2 |
| 20260901103112 | 8 | 0 | 0.0 | 0.0 | 0.00 | 0.00 | 0.00 | 74 | 1020.2 |
| 20260901102600 | 8 | 0 | 0.0 | 1.6 | 0.00 | 0.00 | 0.00 | 74 | 1020.2 |
| 20260901102059 | 8 | 0 | 0.0 | 1.6 | 0.00 | 0.00 | 0.00 | 75 | 1020.2 |
| 20260901101605 | 8 | 173 | 0.0 | 1.6 | 0.00 | 0.00 | 0.00 | 74 | 1020.2 |
| 20260901101059 | 9 | 225 | 0.0 | 3.2 | 0.00 | 0.00 | 0.00 | 74 | 1020.4 |
| 20260901100559 | 8 | 0 | 0.0 | 3.2 | 0.00 | 0.00 | 0.00 | 75 | 1020.3 |
| 20260901100106 | 8 | 0 | 0.0 | 0.0 | 0.00 | 0.00 | 0.00 | 73 | 1020.3 |
| 20260901095558 | 9 | 0 | 0.0 | 0.0 | 0.00 | 0.00 | 0.00 | 72 | 1020.5 |
| 20260901095058 | 9 | 0 | 0.0 | 1.6 | 0.00 | 0.00 | 0.00 | 76 | 1020.4 |
| 20260901094603 | 9 | 0 | 0.0 | 1.6 | 0.00 | 0.00 | 0.00 | 73 | 1020.3 |
| 20260901094059 | 9 | 0 | 0.0 | 1.6 | 0.00 | 0.00 | 0.00 | 73 | 1020.4 |
| 20260901093558 | 9 | 0 | 0.0 | 1.6 | 0.00 | 0.00 | 0.00 | 71 | 1020.2 |
| 20260901093111 | 9 | 0 | 0.0 | 1.6 | 0.00 | 0.00 | 0.00 | 73 | 1020.2 |
| 20260901092559 | 9 | 0 | 0.0 | 1.6 | 0.00 | 0.00 | 0.00 | 71 | 1020.3 |
| 20260901092059 | 9 | 0 | 0.0 | 1.6 | 0.00 | 0.00 | 0.00 | 72 | 1020.2 |
| 20260901091611 | 9 | 0 | 0.0 | 3.2 | 0.00 | 0.00 | 0.00 | 72 | 1020.4 |
| 20260901091058 | 9 | 0 | 0.0 | 3.2 | 0.00 | 0.00 | 0.00 | 71 | 1020.3 |
| 20260901090559 | 10 | 0 | 0.0 | 1.6 | 0.00 | 0.00 | 0.00 | 72 | 1020.4 |
| 20260901085602 | 10 | 0 | 0.0 | 0.0 | 0.00 | 0.00 | 0.00 | 70 | 1020.6 |
| 20260901085059 | 10 | 0 | 0.0 | 0.0 | 0.00 | 0.00 | 0.00 | 69 | 1020.6 |
| 20260901084604 | 10 | 0 | 0.0 | 0.0 | 0.00 | 0.00 | 0.00 | 69 | 1020.4 |
| 20260901084100 | 10 | 0 | 0.0 | 0.0 | 0.00 | 0.00 | 0.00 | 69 | 1020.5 |
| 20260901083559 | 10 | 0 | 0.0 | 1.6 | 0.00 | 0.00 | 0.00 | 69 | 1020.6 |
| 20260901083107 | 10 | 0 | 0.0 | 1.6 | 0.00 | 0.00 | 0.00 | 68 | 1020.6 |
| 20260901082559 | 10 | 0 | 0.0 | 3.2 | 0.00 | 0.00 | 0.00 | 69 | 1020.7 |
| 20260901082059 | 10 | 0 | 0.0 | 3.2 | 0.00 | 0.00 | 0.00 | 69 | 1020.8 |
| 20260901081603 | 10 | 0 | 0.0 | 1.6 | 0.00 | 0.00 | 0.00 | 69 | 1021.0 |
| 20260901081058 | 10 | 0 | 0.0 | 0.0 | 0.00 | 0.00 | 0.00 | 70 | 1021.0 |
| 20260901080559 | 10 | 0 | 0.0 | 0.0 | 0.00 | 0.00 | 0.00 | 70 | 1020.9 |
| 20260901080109 | 10 | 0 | 0.0 | 0.0 | 0.00 | 0.00 | 0.00 | 70 | 1020.9 |
| 20260901075559 | 11 | 0 | 0.0 | 0.0 | 0.00 | 0.00 | 0.00 | 68 | 1020.9 |
| 20260901075059 | 10 | 0 | 0.0 | 1.6 | 0.00 | 0.00 | 0.00 | 67 | 1020.9 |
| 20260901074605 | 10 | 0 | 0.0 | 1.6 | 0.00 | 0.00 | 0.00 | 65 | 1021.0 |
| 20260901074059 | 10 | 0 | 0.0 | 1.6 | 0.00 | 0.00 | 0.00 | 65 | 1020.9 |
| 20260901073559 | 10 | 0 | 0.0 | 0.0 | 0.00 | 0.00 | 0.00 | 64 | 1021.1 |
| 20260901073105 | 11 | 0 | 0.0 | 1.6 | 0.00 | 0.00 | 0.00 | 64 | 1020.9 |
| 20260901072559 | 11 | 0 | 0.0 | 1.6 | 0.00 | 0.00 | 0.00 | 63 | 1020.9 |
| 20260901072102 | 11 | 0 | 0.0 | 1.6 | 0.00 | 0.00 | 0.00 | 63 | 1021.0 |
| 20260901071605 | 11 | 0 | 0.0 | 1.6 | 0.00 | 0.00 | 0.00 | 63 | 1020.9 |
| 20260901071058 | 11 | 0 | 0.0 | 3.2 | 0.00 | 0.00 | 0.00 | 64 | 1021.1 |
| 20260901070558 | 11 | 0 | 0.0 | 3.2 | 0.00 | 0.00 | 0.00 | 63 | 1021.1 |
| 20260901070106 | 11 | 126 | 0.0 | 3.2 | 0.00 | 0.00 | 0.00 | 63 | 1021.1 |
| 20260901065604 | 11 | 0 | 0.0 | 3.2 | 0.00 | 0.00 | 0.00 | 62 | 1021.1 |
| 20260901065100 | 11 | 0 | 0.0 | 1.6 | 0.00 | 0.00 | 0.00 | 61 | 1021.3 |
| 20260901064605 | 11 | 0 | 0.0 | 1.6 | 0.00 | 0.00 | 0.00 | 61 | 1021.3 |
| 20260901064058 | 11 | 0 | 0.0 | 0.0 | 0.00 | 0.00 | 0.00 | 61 | 1021.3 |
| 20260901063559 | 11 | 0 | 0.0 | 0.0 | 0.00 | 0.00 | 0.00 | 61 | 1021.3 |
| 20260901063116 | 11 | 0 | 0.0 | 1.6 | 0.00 | 0.00 | 0.00 | 60 | 1021.3 |
| 20260901062559 | 12 | 0 | 0.0 | 1.6 | 0.00 | 0.00 | 0.00 | 59 | 1021.2 |
| 20260901062059 | 12 | 0 | 0.0 | 1.6 | 0.00 | 0.00 | 0.00 | 60 | 1021.3 |
| 20260901061621 | 12 | 0 | 0.0 | 1.6 | 0.00 | 0.00 | 0.00 | 58 | 1021.3 |
| 20260901061059 | 12 | 0 | 0.0 | 8.0 | 0.00 | 0.00 | 0.00 | 58 | 1021.4 |
| 20260901060559 | 12 | 0 | 0.0 | 8.0 | 0.00 | 0.00 | 0.00 | 56 | 1021.4 |
| 20260901060106 | 12 | 54 | 3.2 | 8.0 | 0.00 | 0.00 | 0.00 | 56 | 1021.4 |
| 20260901055558 | 13 | 68 | 3.2 | 6.4 | 0.00 | 0.00 | 0.00 | 56 | 1021.5 |
| 20260901055058 | 13 | 65 | 3.2 | 6.4 | 0.00 | 0.00 | 0.00 | 56 | 1021.5 |
| 20260901054605 | 13 | 65 | 4.8 | 6.4 | 0.00 | 0.00 | 0.00 | 56 | 1021.5 |
| 20260901054059 | 12 | 66 | 0.0 | 4.8 | 0.00 | 0.00 | 0.00 | 57 | 1021.5 |
| 20260901053559 | 12 | 106 | 0.0 | 0.0 | 0.00 | 0.00 | 0.00 | 60 | 1021.5 |
| 20260901053107 | 12 | 0 | 0.0 | 1.6 | 0.00 | 0.00 | 0.00 | 60 | 1021.5 |
| 20260901052558 | 12 | 0 | 0.0 | 3.2 | 0.00 | 0.00 | 0.00 | 60 | 1021.6 |
| 20260901052058 | 12 | 0 | 0.0 | 3.2 | 0.00 | 0.00 | 0.00 | 59 | 1021.5 |
| 20260901051618 | 13 | 221 | 0.0 | 1.6 | 0.00 | 0.00 | 0.00 | 58 | 1021.6 |
| 20260901051059 | 13 | 0 | 0.0 | 3.2 | 0.00 | 0.00 | 0.00 | 58 | 1021.6 |
| 20260901050600 | 13 | 0 | 0.0 | 3.2 | 0.00 | 0.00 | 0.00 | 56 | 1021.6 |
| 20260901050109 | 13 | 170 | 0.0 | 3.2 | 0.00 | 0.00 | 0.00 | 56 | 1021.6 |
| 20260901045558 | 13 | 0 | 0.0 | 6.4 | 0.00 | 0.00 | 0.00 | 57 | 1021.5 |
| 20260901045058 | 13 | 0 | 0.0 | 6.4 | 0.00 | 0.00 | 0.00 | 55 | 1021.5 |
| 20260901044605 | 14 | 176 | 1.6 | 4.8 | 0.00 | 0.00 | 0.00 | 54 | 1021.5 |